[[{"header":{"parameterUnit":"m.s-1","parameterCategory":1,"la1":30.2991,"la2":30.254,"lo1":-89.0895,"lo2":-89.0444,"dy":0.0017,"dx":0.0017,"nx":28,"ny":28,"refTime":"2024-10-21T09:00:00:Z","depth":0,"parameterNumber":2,"parameterNumberName":"U-component_of_WINDS"},"data":[0,0,0,0,0,0,0,0,0,0,0,0,0,0,0,0,0,0,0,0,0,0,0,0,0,0,0,0,0,0,0,0,0,0,0,0,0,0,0,0,0,0,0,0,0,0,0,0,0,0,0,0,0,0,0,0,0,0,-2.0117,-2.0118,0,-2.026,-2.0261,-2.0263,-2.0259,-2.0257,-2.0255,-2.0253,-2.0397,-2.0403,-2.0409,0,0,0,0,0,0,0,0,0,0,0,0,0,-1.984,-1.9845,-2.0117,-2.0118,-2.012,-2.0259,-2.0261,-2.0263,-2.0259,-2.0257,-2.0254,-2.0252,-2.0396,-2.0402,-2.0409,0,0,0,0,0,0,0,0,0,0,0,0,0,-1.9969,-1.9846,-2.0116,-2.0135,-2.0138,-2.0259,-2.0261,-2.0264,-2.026,-2.0257,-2.0254,-2.0251,-2.0393,-2.0402,-2.041,-2.0521,0,0,-2.0436,-2.044,0,0,0,0,0,0,0,0,-1.9961,-1.9979,-2.013,-2.0134,-2.0138,-2.0238,-2.0217,-2.035,-2.026,-2.0213,-2.0253,-2.025,-2.0347,-2.0359,-2.0392,-2.0528,-2.0534,-2.0437,-2.0442,-2.0446,-2.0448,0,0,0,0,0,0,0,-1.9953,-1.9973,-2.0173,-2.0133,-2.0137,-2.0136,-2.0151,-2.0242,-2.0295,-2.0217,-2.0217,-2.0234,-2.0348,-2.0384,-2.0395,-2.0536,-2.0436,-2.0444,-2.0449,-2.0453,-2.0773,-2.0776,0,0,0,0,0,0,-1.994,-1.9965,-2.0169,-2.0177,-2.0041,-2.0143,-2.016,-2.0209,-2.0294,-2.0304,-2.0237,-2.0234,-2.0371,-2.0386,-2.0401,-2.0538,-2.0445,-2.0453,-2.0458,-2.077,-2.0774,-2.0778,0,0,0,0,0,0,-1.9934,-1.9958,-2.0163,-2.0072,-2.0098,-2.0151,-2.0206,-2.0213,-2.0249,-2.0309,-2.0318,-2.0264,-2.0369,-2.0389,-2.0492,-2.0543,-2.0457,-2.0465,-2.0766,-2.0771,-2.0776,-2.0814,0,0,0,0,0,0,-1.9926,-1.9956,-1.9999,-2.0073,-2.0102,-2.0252,-2.0209,-2.0218,-2.0264,-2.0261,-2.0336,-2.0346,-2.0368,-2.0479,-2.05,-2.0553,-2.0472,-2.0761,-2.0768,-2.0774,-2.0808,-2.0819,-2.0829,0,0,0,0,0,-1.9916,-2.0002,-2.0001,-2.0025,-2.0157,-2.0255,-2.0272,-2.0297,-2.0268,-2.0312,-2.035,-2.0343,-2.0534,-2.049,-2.0514,-2.057,-2.0758,-2.0766,-2.0774,-2.0803,-2.0817,-2.0829,0,0,0,0,0,0,-1.9932,-2.0012,-2.0011,-2.0124,-2.0183,-2.0254,-2.031,-2.031,-2.0378,-2.0372,-2.0399,-2.0416,-2.052,-2.0555,-2.0505,-2.0683,-2.0643,-2.0655,-2.0657,-2.0671,-2.0681,-2.0671,-2.0479,0,0,0,0,0,-1.9948,-2.0022,-2.0088,-2.0181,-2.0211,-2.0255,-2.0299,-2.0313,-2.0375,-2.0399,-2.0445,-2.0505,-2.0578,-2.0626,-2.0697,-2.0813,-2.083,-2.0863,-2.0874,-2.0882,-2.0893,-2.096,-2.0976,-2.0803,-2.0803,-2.0803,0,0,-1.9983,-2.0037,-2.0081,-2.0186,-2.0233,-2.0309,-2.0276,-2.0357,-2.0413,-2.0411,-2.0513,-2.0548,-2.0617,-2.0728,-2.0779,-2.076,-2.0945,-2.0892,-2.0898,-2.0905,-2.0969,-2.0985,-2.1,-2.0808,-2.0807,-2.0806,0,0,-2.0086,-2.0133,-2.0218,-2.0266,-2.0338,-2.0368,-2.0388,-2.046,-2.0484,-2.0587,-2.0587,-2.0655,-2.078,-2.083,-2.0871,-2.0996,-2.0993,-2.1018,-2.1073,-2.1138,-2.1151,-2.1163,-2.121,-2.1226,-2.1028,-2.1029,-2.1029,0,-2.0121,-2.0235,-2.026,-2.0343,-2.0389,-2.0392,-2.0478,-2.0524,-2.0615,-2.0648,-2.0625,-2.0785,-2.0831,-2.0955,-2.0985,-2.1018,-2.1043,-2.101,-2.1147,-2.116,-2.1172,-2.1216,-2.1233,-2.1031,-2.1031,-2.1031,-2.103,0,-2.0275,-2.0354,-2.0413,-2.0503,-2.0557,-2.064,-2.0679,-2.0729,-2.074,-2.0771,-2.0877,-2.0932,-2.1016,-2.1046,-2.1055,-2.1172,-2.1158,-2.1141,-2.1101,-2.119,-2.1233,-2.125,-2.1035,-2.1034,-2.1033,-2.1033,0,0,-2.039,-2.0496,-2.0517,-2.0559,-2.064,-2.0702,-2.0786,-2.0869,-2.0913,-2.0976,-2.1048,-2.1156,-2.1142,-2.1189,-2.1204,-2.1261,-2.1358,-2.1237,-2.1239,-2.1259,-2.1492,-2.1506,-2.1525,-2.1356,-2.136,-2.1362,-2.1487,0,-2.0503,-2.0654,-2.068,-2.0812,-2.0887,-2.0892,-2.0965,-2.1023,-2.1056,-2.1124,-2.1159,-2.1236,-2.121,-2.1239,-2.1295,-2.1335,-2.1406,-2.1326,-2.1425,-2.1428,-2.1409,-2.1547,-2.1561,-2.1676,-2.1504,-2.1507,-2.1509,0,-2.0655,-2.0724,-2.0864,-2.0938,-2.097,-2.1035,-2.1115,-2.1179,-2.1246,-2.1266,-2.132,-2.1329,-2.1418,-2.1373,-2.1496,-2.1441,-2.1483,-2.1509,-2.1514,-2.1525,-2.1474,-2.1563,-2.1713,-2.1731,-2.1535,-2.1532,-2.1531,0,-2.0728,-2.0856,-2.0957,-2.0992,-2.108,-2.1127,-2.1165,-2.1229,-2.1278,-2.1347,-2.1379,-2.1457,-2.15,-2.156,-2.1591,-2.1555,-2.1712,-2.167,-2.1732,-2.1732,-2.1766,-2.1763,-2.1926,-2.179,-2.179,-2.179,-2.1789,0,-2.0852,-2.0937,-2.0991,-2.1053,-2.115,-2.118,-2.1275,-2.1312,-2.1369,-2.1439,-2.1447,-2.1512,-2.1548,-2.1619,-2.1644,-2.1743,-2.1762,-2.1781,-2.1787,-2.1781,-2.1779,-2.181,-2.1803,-2.1794,-2.1793,-2.1792,-2.1792,0,-2.095,-2.0989,-2.11,-2.1175,-2.1196,-2.1264,-2.1328,-2.1389,-2.1422,-2.151,-2.1533,-2.1584,-2.1668,-2.1705,-2.1808,-2.1824,-2.1939,-2.1937,-2.1917,-2.1919,-2.198,-2.1975,-2.2169,-2.2197,-2.2042,-2.2043,-2.2044,0,-2.1027,-2.1093,-2.1176,-2.1225,-2.1265,-2.1342,-2.1393,-2.1425,-2.1477,-2.1559,-2.1611,-2.1695,-2.1765,-2.1899,-2.1945,-2.2025,-2.2027,-2.209,-2.2039,-2.2032,-2.203,-2.2027,-2.2034,-2.2099,-2.2101,-2.2102,-2.2103,0,-2.116,-2.1177,-2.125,-2.1332,-2.1392,-2.1457,-2.152,-2.1559,-2.1601,-2.166,-2.1747,-2.1801,-2.1908,-2.1992,-2.2075,-2.2114,-2.2117,-2.2119,-2.2138,-2.2134,-2.212,-2.213,-2.1944,-2.2114,-2.2113,-2.2112,-2.2112,-2.2111,-2.1252,-2.1312,-2.1381,-2.1463,-2.1514,-2.1574,-2.1636,-2.1677,-2.1751,-2.1841,-2.1855,-2.1949,-2.2015,-2.2127,-2.217,-2.2244,-2.2228,-2.2255,-2.2262,-2.2269,-2.2274,-2.2107,-2.2258,-2.2258,-2.2258,-2.2258,-2.2257,0,-2.1387,-2.1432,-2.1507,-2.1597,-2.1662,-2.1659,-2.173,-2.1784,-2.1867,-2.1929,-2.1998,-2.2099,-2.2182,-2.2236,-2.2319,-2.2368,-2.2371,-2.2389,-2.2386,-2.2396,-2.2282,-2.2258,-2.2385,-2.2385,-2.2385,-2.2385,-2.2385,-2.2385,-2.1465,-2.1568,-2.1594,-2.1723,-2.1767,-2.1859,-2.19,-2.1956,-2.2006,-2.2119,-2.2189,-2.2224,-2.2283,-2.2372,-2.2448,-2.2461,-2.2493,-2.2512,-2.2525,-2.2417,-2.2404,-2.2391,-2.2369,-2.2518,-2.2518,-2.2633,-2.2634,-2.2635]},{"header":{"parameterUnit":"m.s-1","parameterCategory":1,"la1":30.2991,"la2":30.254,"lo1":-89.0895,"lo2":-89.0444,"dy":0.0017,"dx":0.0017,"nx":28,"ny":28,"refTime":"2024-10-21T09:00:00:Z","depth":0,"parameterNumber":3,"parameterNumberName":"V-component_of_WINDS"},"data":[0,0,0,0,0,0,0,0,0,0,0,0,0,0,0,0,0,0,0,0,0,0,0,0,0,0,0,0,0,0,0,0,0,0,0,0,0,0,0,0,0,0,0,0,0,0,0,0,0,0,0,0,0,0,0,0,0,0,-2.2493,-2.2493,0,-2.247,-2.247,-2.247,-2.2419,-2.2418,-2.2417,-2.2416,-2.2393,-2.2393,-2.2393,0,0,0,0,0,0,0,0,0,0,0,0,0,-2.2494,-2.2494,-2.2493,-2.2493,-2.2493,-2.247,-2.247,-2.247,-2.242,-2.2418,-2.2417,-2.2416,-2.2392,-2.2393,-2.2393,0,0,0,0,0,0,0,0,0,0,0,0,0,-2.2485,-2.2494,-2.2494,-2.2465,-2.2462,-2.247,-2.247,-2.2469,-2.242,-2.2418,-2.2417,-2.2415,-2.2392,-2.2393,-2.2393,-2.2427,0,0,-2.2395,-2.2395,0,0,0,0,0,0,0,0,-2.2485,-2.2485,-2.247,-2.2467,-2.2464,-2.2446,-2.2461,-2.2455,-2.242,-2.2436,-2.2416,-2.2415,-2.2412,-2.241,-2.2409,-2.2426,-2.2425,-2.2395,-2.2395,-2.2395,-2.2395,0,0,0,0,0,0,0,-2.2486,-2.2485,-2.2484,-2.2469,-2.2466,-2.2453,-2.245,-2.246,-2.2433,-2.2435,-2.2431,-2.2429,-2.241,-2.2409,-2.2408,-2.2424,-2.2395,-2.2395,-2.2395,-2.2396,-2.2465,-2.2467,0,0,0,0,0,0,-2.2491,-2.2486,-2.2485,-2.2483,-2.2471,-2.2455,-2.2451,-2.2453,-2.2432,-2.2428,-2.243,-2.2426,-2.2409,-2.2408,-2.2407,-2.2444,-2.2395,-2.2396,-2.2396,-2.2464,-2.2465,-2.2467,0,0,0,0,0,0,-2.2491,-2.2491,-2.2486,-2.2484,-2.2482,-2.2456,-2.2459,-2.2454,-2.2453,-2.2429,-2.2424,-2.2434,-2.2408,-2.2407,-2.2422,-2.2443,-2.2396,-2.2396,-2.2462,-2.2464,-2.2466,-2.2519,0,0,0,0,0,0,-2.2491,-2.2491,-2.2504,-2.2484,-2.2482,-2.2501,-2.246,-2.2454,-2.2454,-2.2449,-2.2432,-2.2427,-2.2406,-2.2422,-2.2422,-2.2443,-2.2397,-2.246,-2.2463,-2.2466,-2.2515,-2.2523,-2.2529,0,0,0,0,0,-2.2491,-2.252,-2.2505,-2.2505,-2.2498,-2.2503,-2.2501,-2.2477,-2.2456,-2.2468,-2.2453,-2.2428,-2.244,-2.2424,-2.2424,-2.2445,-2.2458,-2.2462,-2.2465,-2.2512,-2.2521,-2.2529,0,0,0,0,0,0,-2.2543,-2.2517,-2.25,-2.2524,-2.2516,-2.2494,-2.2509,-2.2488,-2.2486,-2.2481,-2.245,-2.2447,-2.2466,-2.2457,-2.2439,-2.2475,-2.2445,-2.2449,-2.2481,-2.2489,-2.2496,-2.2498,-2.2397,0,0,0,0,0,-2.2558,-2.2564,-2.254,-2.2563,-2.256,-2.2536,-2.2537,-2.2518,-2.2509,-2.2505,-2.2491,-2.2483,-2.2484,-2.2486,-2.2487,-2.2514,-2.2509,-2.2528,-2.2535,-2.2541,-2.2545,-2.2557,-2.2565,-2.2479,-2.2479,-2.2479,0,0,-2.2587,-2.2573,-2.2579,-2.2573,-2.2565,-2.2572,-2.2533,-2.2542,-2.2547,-2.2507,-2.252,-2.2509,-2.2497,-2.2518,-2.2527,-2.2511,-2.2567,-2.2545,-2.255,-2.2551,-2.2561,-2.257,-2.2577,-2.2481,-2.2481,-2.248,0,0,-2.2644,-2.2635,-2.2652,-2.2645,-2.2632,-2.2615,-2.262,-2.2601,-2.2592,-2.2605,-2.2575,-2.258,-2.2584,-2.2576,-2.2573,-2.2626,-2.2603,-2.2627,-2.2664,-2.2677,-2.2683,-2.2689,-2.2708,-2.2715,-2.2631,-2.2631,-2.2631,0,-2.2682,-2.2692,-2.2664,-2.2675,-2.2673,-2.2636,-2.2654,-2.2647,-2.2636,-2.2635,-2.2618,-2.2621,-2.2611,-2.263,-2.2642,-2.2641,-2.2645,-2.2629,-2.2685,-2.269,-2.2695,-2.2712,-2.2719,-2.2634,-2.2634,-2.2634,-2.2633,0,-2.2739,-2.2745,-2.2761,-2.2751,-2.275,-2.2764,-2.2739,-2.2741,-2.2723,-2.2708,-2.272,-2.2707,-2.2703,-2.2706,-2.2688,-2.2722,-2.2712,-2.269,-2.2659,-2.2707,-2.2722,-2.2729,-2.2638,-2.2637,-2.2636,-2.2636,0,0,-2.2829,-2.2802,-2.2808,-2.2803,-2.2786,-2.279,-2.2802,-2.2799,-2.2801,-2.2794,-2.2803,-2.2807,-2.2786,-2.2783,-2.2763,-2.2774,-2.2816,-2.2751,-2.275,-2.2763,-2.2851,-2.2868,-2.2876,-2.2801,-2.2802,-2.2803,-2.2852,0,-2.2882,-2.2901,-2.2876,-2.29,-2.2906,-2.287,-2.288,-2.2871,-2.2857,-2.2859,-2.2843,-2.2846,-2.2819,-2.2816,-2.2825,-2.2809,-2.2833,-2.2805,-2.2808,-2.2808,-2.2812,-2.2884,-2.2902,-2.2949,-2.2858,-2.2859,-2.2859,0,-2.2947,-2.2942,-2.2967,-2.2947,-2.2949,-2.2958,-2.2952,-2.2955,-2.2943,-2.2932,-2.2928,-2.2904,-2.2914,-2.2884,-2.2896,-2.2878,-2.2877,-2.2869,-2.287,-2.287,-2.2837,-2.2885,-2.2963,-2.297,-2.2869,-2.2868,-2.2867,0,-2.3009,-2.301,-2.3024,-2.302,-2.2998,-2.3006,-2.2997,-2.2983,-2.2982,-2.2977,-2.2976,-2.2972,-2.297,-2.2967,-2.2943,-2.2923,-2.2958,-2.2926,-2.2948,-2.2949,-2.2957,-2.2957,-2.3037,-2.2957,-2.2957,-2.2957,-2.2957,0,-2.3071,-2.3088,-2.3052,-2.3061,-2.3078,-2.3049,-2.3066,-2.3054,-2.3042,-2.3047,-2.3016,-2.3022,-2.299,-2.2992,-2.2973,-2.2986,-2.2985,-2.2976,-2.2971,-2.2979,-2.298,-2.2978,-2.2974,-2.2959,-2.2959,-2.2958,-2.2958,0,-2.3144,-2.3121,-2.3135,-2.3112,-2.3107,-2.312,-2.3101,-2.3108,-2.3091,-2.3098,-2.3098,-2.3072,-2.3073,-2.3048,-2.3044,-2.3031,-2.3052,-2.3041,-2.3056,-2.3053,-2.3076,-2.3074,-2.3157,-2.3166,-2.3082,-2.3082,-2.3083,0,-2.3185,-2.3197,-2.3176,-2.3177,-2.3169,-2.3172,-2.3171,-2.3142,-2.3142,-2.3128,-2.3137,-2.3135,-2.3132,-2.3135,-2.3115,-2.3111,-2.31,-2.3129,-2.3099,-2.3106,-2.31,-2.3099,-2.31,-2.3135,-2.3137,-2.3137,-2.3138,0,-2.3261,-2.3248,-2.3247,-2.3242,-2.3241,-2.3236,-2.3229,-2.3232,-2.32,-2.3201,-2.3201,-2.3199,-2.3194,-2.3193,-2.3185,-2.3175,-2.3151,-2.3147,-2.3152,-2.3161,-2.3169,-2.3164,-2.3073,-2.3146,-2.3145,-2.3145,-2.3144,-2.3144,-2.3319,-2.3327,-2.3313,-2.3313,-2.3304,-2.3298,-2.3303,-2.3286,-2.3286,-2.328,-2.3263,-2.3266,-2.3252,-2.3239,-2.3231,-2.3233,-2.3218,-2.3225,-2.3227,-2.3229,-2.3234,-2.3169,-2.3231,-2.3231,-2.3231,-2.3231,-2.323,0,-2.3392,-2.3381,-2.3381,-2.3371,-2.3371,-2.3348,-2.3338,-2.334,-2.3343,-2.3332,-2.3329,-2.3329,-2.3327,-2.3306,-2.3302,-2.3306,-2.3295,-2.3306,-2.3306,-2.3303,-2.3247,-2.3243,-2.3315,-2.3315,-2.3315,-2.3315,-2.3315,-2.3315,-2.343,-2.3443,-2.3429,-2.3436,-2.3425,-2.3427,-2.3423,-2.3417,-2.3408,-2.3409,-2.3407,-2.3394,-2.3379,-2.3373,-2.3369,-2.3363,-2.3363,-2.3377,-2.3368,-2.3316,-2.3308,-2.33,-2.3296,-2.3377,-2.3378,-2.3424,-2.3424,-2.3424]}]]